Weather History for St. Cloud, MN

Change the Weather History Date:

Sunday, December 11, 2011

  Actual Average Record
Temperature  
Mean Temperature 31 °F 17 °F  
Max Temperature 43 °F 26 °F 53 °F (1913)
Min Temperature 18 °F 8 °F -23 °F (1936)
Degree Days  
Heating Degree Days 34 48  
Month to date heating degree days 499 505  
Since 1 July heating degree days 2098 2430  
Cooling Degree Days 0 0  
Month to date cooling degree days 0 0  
Year to date cooling degree days 634 465  
Moisture  
Dew Point 24 °F    
Average Humidity 69    
Maximum Humidity 92    
Minimum Humidity 45    
Precipitation  
Precipitation 0.00 in 0.03 in 0.58 in (1965)
Month to date precipitation T 0.32  
Year to date precipitation 27.67 27.23  
Snow  
Snow 0.00 in 0.40 in 5.30 in (2010)
Month to date snowfall T 3.5  
Since 1 July snowfall 3.9 12.7  
Snow Depth 0.00 in    
Sea Level Pressure  
Sea Level Pressure 30.05 in    
Wind  
Wind Speed 12 mph (South)    
Max Wind Speed 23 mph    
Max Gust Speed 30 mph    
Visibility 8 miles    
Events      
T = Trace of Precipitation, MM = Missing Value Source: NWS Daily Summary

Daily Weather History Graph

Daily Weather History Graph

Search for Another Location

Airport:

Trip Planner

Search our weather history database for the weather conditions in past years. The results will help you decide how hot, cold, wet, or windy it might be!

Date:

Astronomy

Dec. 11, 2011 Rise Set
Actual Time 7:46 AM CST 4:32 PM CST
Civil Twilight 7:12 AM CST 5:06 PM CST
Nautical Twilight 6:34 AM CST 5:44 PM CST
Astronomical Twilight 5:58 AM CST 6:20 PM CST
Moon 5:43 PM CST (12/11) 8:35 AM CST (12/11)
Length of Visible Light 9h 54m
Length of Day
8h 46m
Full, 99% of the Moon is Illuminated
Dec 11
Full
Dec 17
Last Quarter
Dec 24
New
Jan 1
First Quarter
Jan 9
Full

Hourly Weather History & Observations

Time (CST) Temp. Windchill Dew Point Humidity Pressure Visibility Wind Dir Wind Speed Gust Speed Precip Events Conditions
12:53 AM 21.0 °F 11.4 °F 17.1 °F 85% 30.09 in 8.0 mi South 8.1 mph - N/A   Clear
1:53 AM 21.0 °F 10.6 °F 17.1 °F 85% 30.08 in 8.0 mi South 9.2 mph - N/A   Clear
2:53 AM 19.9 °F 11.1 °F 17.1 °F 89% 30.07 in 8.0 mi South 6.9 mph - N/A   Clear
3:53 AM 19.0 °F 9.0 °F 15.1 °F 85% 30.05 in 7.0 mi SSE 8.1 mph - N/A   Clear
4:53 AM 18.0 °F 6.9 °F 15.1 °F 88% 30.05 in 7.0 mi SSE 9.2 mph - N/A   Clear
5:53 AM 19.9 °F 9.3 °F 16.0 °F 85% 30.04 in 9.0 mi SSE 9.2 mph - N/A   Clear
6:53 AM 19.9 °F 12.1 °F 16.0 °F 85% 30.04 in 9.0 mi SSE 5.8 mph - N/A   Clear
7:53 AM 19.9 °F 10.1 °F 16.0 °F 85% 30.04 in 8.0 mi SSE 8.1 mph - N/A   Clear
8:53 AM 28.4 °F 19.1 °F 19.4 °F 69% 29.96 in 10.0 mi South 10.4 mph - N/A   Clear
9:53 AM 32.0 °F 22.5 °F 23.0 °F 69% 30.03 in 10.0 mi South 12.7 mph - N/A   Clear
10:53 AM 37.0 °F 27.0 °F 23.0 °F 57% 30.04 in 10.0 mi South 18.4 mph - N/A   Clear
11:53 AM 39.9 °F 31.4 °F 23.0 °F 51% 30.03 in 10.0 mi South 16.1 mph - N/A   Clear
12:53 PM 43.0 °F 34.5 °F 23.0 °F 45% 30.03 in 10.0 mi South 19.6 mph - N/A   Clear
1:53 PM 43.0 °F 34.8 °F 26.1 °F 51% 30.02 in 10.0 mi South 18.4 mph 24.2 mph N/A   Clear
2:53 PM 42.1 °F 34.2 °F 28.9 °F 60% 30.03 in 9.0 mi South 16.1 mph - N/A   Clear
3:53 PM 39.0 °F 31.0 °F 30.0 °F 70% 30.05 in 7.0 mi South 13.8 mph - N/A   Clear
4:49 PM 35.6 °F 27.1 °F 30.2 °F 81% 29.99 in 6.0 mi South 12.7 mph - N/A   Haze
4:53 PM 36.0 °F 27.5 °F 30.0 °F 79% 30.06 in 7.0 mi South 12.7 mph - N/A   Mostly Cloudy
5:53 PM 36.0 °F 26.7 °F 30.0 °F 79% 30.07 in 7.0 mi South 15.0 mph - N/A   Overcast
6:53 PM 36.0 °F 24.4 °F 30.0 °F 79% 30.08 in 7.0 mi South 23.0 mph 29.9 mph N/A   Overcast
7:53 PM 35.1 °F 26.4 °F 28.9 °F 78% 30.10 in 6.0 mi South 12.7 mph 25.3 mph N/A   Haze
8:53 PM 35.6 °F 26.6 °F 28.4 °F 75% 30.03 in 7.0 mi SSW 13.8 mph - N/A   Overcast
9:53 PM 37.0 °F 28.9 °F 28.9 °F 73% 30.10 in 8.0 mi SSW 12.7 mph - N/A   Overcast
10:53 PM 37.4 °F 30.8 °F 28.4 °F 70% 30.05 in 9.0 mi SSW 9.2 mph - N/A   Overcast
11:53 PM 36.0 °F 32.1 °F 30.0 °F 79% 30.11 in 8.0 mi SSE 4.6 mph - N/A   Overcast